| time (UTC) | temp C | wind direction | speed KPH | gust KPH | rain 1hr cm | rain 24hr cm | rain mn cm | humidity % | barometer mb |
| 20260503200356 | 15 | 322 | 9.7 | 16.1 | 0.00 | 0.00 | 0.00 | 35 | 1017.4 |
| 20260503195853 | 15 | 27 | 0.0 | 3.2 | 0.00 | 0.00 | 0.00 | 36 | 1017.4 |
| 20260503195349 | 15 | 275 | 11.3 | 16.1 | 0.00 | 0.00 | 0.00 | 36 | 1017.9 |
| 20260503194847 | 15 | 303 | 9.7 | 17.7 | 0.00 | 0.00 | 0.00 | 39 | 1018.0 |
| 20260503194343 | 14 | 315 | 8.0 | 11.3 | 0.00 | 0.00 | 0.00 | 37 | 1018.1 |
| 20260503193839 | 14 | 328 | 12.9 | 20.9 | 0.00 | 0.00 | 0.00 | 38 | 1017.9 |
| 20260503193335 | 13 | 309 | 3.2 | 9.7 | 0.00 | 0.00 | 0.00 | 37 | 1018.1 |
| 20260503192831 | 13 | 327 | 8.0 | 12.9 | 0.00 | 0.00 | 0.00 | 39 | 1018.3 |
| 20260503192327 | 14 | 312 | 16.1 | 20.9 | 0.00 | 0.00 | 0.00 | 36 | 1018.4 |
| 20260503191823 | 13 | 313 | 4.8 | 16.1 | 0.00 | 0.00 | 0.00 | 38 | 1018.5 |
| 20260503191320 | 13 | 192 | 12.9 | 17.7 | 0.00 | 0.00 | 0.00 | 36 | 1018.2 |
| 20260503190817 | 13 | 333 | 14.5 | 27.4 | 0.00 | 0.00 | 0.00 | 38 | 1018.5 |
| 20260503190314 | 13 | 309 | 4.8 | 9.7 | 0.00 | 0.00 | 0.00 | 36 | 1018.6 |
| 20260503185811 | 13 | 288 | 3.2 | 22.5 | 0.00 | 0.00 | 0.00 | 36 | 1018.6 |
| 20260503185307 | 13 | 241 | 3.2 | 11.3 | 0.00 | 0.00 | 0.00 | 35 | 1018.5 |
| 20260503184802 | 14 | 322 | 17.7 | 29.0 | 0.00 | 0.00 | 0.00 | 35 | 1018.6 |
| 20260503184258 | 13 | 303 | 8.0 | 17.7 | 0.00 | 0.00 | 0.00 | 38 | 1018.9 |
| 20260503183754 | 13 | 274 | 9.7 | 12.9 | 0.00 | 0.00 | 0.00 | 36 | 1018.7 |
| 20260503183252 | 13 | 333 | 3.2 | 14.5 | 0.00 | 0.00 | 0.00 | 36 | 1018.6 |
| 20260503182749 | 13 | 313 | 4.8 | 24.1 | 0.00 | 0.00 | 0.00 | 36 | 1019.0 |
| 20260503182248 | 13 | 221 | 8.0 | 11.3 | 0.00 | 0.00 | 0.00 | 38 | 1018.8 |
| 20260503181745 | 13 | 289 | 6.4 | 20.9 | 0.00 | 0.00 | 0.00 | 37 | 1019.0 |
| 20260503181242 | 13 | 340 | 4.8 | 14.5 | 0.00 | 0.00 | 0.00 | 38 | 1019.1 |
| 20260503180738 | 12 | 93 | 4.8 | 6.4 | 0.00 | 0.00 | 0.00 | 38 | 1019.0 |
| 20260503180236 | 13 | 82 | 1.6 | 6.4 | 0.00 | 0.00 | 0.00 | 36 | 1019.1 |
| 20260503175732 | 12 | 98 | 3.2 | 14.5 | 0.00 | 0.00 | 0.00 | 40 | 1019.2 |
| 20260503175230 | 12 | 307 | 1.6 | 6.4 | 0.00 | 0.00 | 0.00 | 42 | 1019.2 |
| 20260503174726 | 12 | 279 | 8.0 | 14.5 | 0.00 | 0.00 | 0.00 | 39 | 1019.2 |
| 20260503174224 | 12 | 286 | 6.4 | 17.7 | 0.00 | 0.00 | 0.00 | 40 | 1019.3 |
| 20260503173719 | 13 | 287 | 12.9 | 16.1 | 0.00 | 0.00 | 0.00 | 40 | 1019.4 |
| 20260503173215 | 13 | 287 | 4.8 | 9.7 | 0.00 | 0.00 | 0.00 | 39 | 1019.6 |
| 20260503172712 | 12 | 27 | 4.8 | 4.8 | 0.00 | 0.00 | 0.00 | 36 | 1019.6 |
| 20260503172209 | 12 | 55 | 8.0 | 14.5 | 0.00 | 0.00 | 0.00 | 42 | 1019.8 |
| 20260503171705 | 12 | 307 | 8.0 | 16.1 | 0.00 | 0.00 | 0.00 | 42 | 1019.8 |
| 20260503171203 | 12 | 309 | 6.4 | 17.7 | 0.00 | 0.00 | 0.00 | 43 | 1019.7 |
| 20260503170700 | 12 | 264 | 9.7 | 16.1 | 0.00 | 0.00 | 0.00 | 36 | 1019.7 |
| 20260503170157 | 12 | 297 | 12.9 | 17.7 | 0.00 | 0.00 | 0.00 | 36 | 1020.1 |
| 20260503160124 | 11 | 282 | 6.4 | 6.4 | 0.00 | 0.00 | 0.00 | 43 | 1020.6 |
| 20260503150553 | 9 | 77 | 1.6 | 16.1 | 0.00 | 0.00 | 0.00 | 47 | 1020.3 |
| 20260503130943 | 5 | 237 | 9.7 | 12.9 | 0.00 | 0.00 | 0.00 | 64 | 1020.6 |
| 20260503130441 | 5 | 2 | 4.8 | 11.3 | 0.00 | 0.00 | 0.00 | 65 | 1020.8 |
| 20260503110332 | 1 | 230 | 0.0 | 0.0 | 0.00 | 0.00 | 0.00 | 83 | 1020.2 |
| 20260503100258 | 1 | 286 | 0.0 | 0.0 | 0.00 | 0.00 | 0.00 | 82 | 1019.8 |
| 20260503090218 | 1 | 232 | 0.0 | 0.0 | 0.00 | 0.00 | 0.00 | 87 | 1019.7 |
| 20260503081150 | 1 | 250 | 0.0 | 0.0 | 0.00 | 0.00 | 0.00 | 82 | 1019.3 |
| 20260503080646 | 1 | 243 | 1.6 | 3.2 | 0.00 | 0.00 | 0.00 | 84 | 1019.4 |
| 20260503080144 | 1 | 218 | 0.0 | 0.0 | 0.00 | 0.00 | 0.00 | 85 | 1019.4 |
| 20260503072621 | 1 | 244 | 0.0 | 0.0 | 0.00 | 0.00 | 0.00 | 83 | 1019.1 |
| 20260503072118 | 1 | 253 | 0.0 | 1.6 | 0.00 | 0.00 | 0.00 | 82 | 1018.9 |
| 20260503071614 | 2 | 274 | 0.0 | 0.0 | 0.00 | 0.00 | 0.00 | 81 | 1019.0 |
| 20260503071111 | 1 | 249 | 1.6 | 3.2 | 0.00 | 0.00 | 0.00 | 82 | 1018.9 |
| 20260503070608 | 1 | 254 | 0.0 | 0.0 | 0.00 | 0.00 | 0.00 | 80 | 1019.0 |
| 20260503070106 | 2 | 306 | 0.0 | 3.2 | 0.00 | 0.00 | 0.00 | 80 | 1019.0 |
| 20260503055031 | 3 | 273 | 3.2 | 4.8 | 0.00 | 0.00 | 0.00 | 75 | 1019.0 |
| 20260503054527 | 3 | 316 | 3.2 | 3.2 | 0.00 | 0.00 | 0.00 | 75 | 1019.0 |
| 20260503054025 | 3 | 297 | 3.2 | 6.4 | 0.00 | 0.00 | 0.00 | 74 | 1019.0 |
| 20260503053523 | 3 | 276 | 4.8 | 9.7 | 0.00 | 0.00 | 0.00 | 74 | 1018.9 |
| 20260503053020 | 3 | 272 | 3.2 | 3.2 | 0.00 | 0.00 | 0.00 | 74 | 1018.9 |
| 20260503052517 | 3 | 302 | 1.6 | 3.2 | 0.00 | 0.00 | 0.00 | 75 | 1018.9 |
| 20260503052013 | 3 | 282 | 1.6 | 3.2 | 0.00 | 0.00 | 0.00 | 74 | 1018.9 |
| 20260503051509 | 3 | 352 | 0.0 | 6.4 | 0.00 | 0.00 | 0.00 | 75 | 1018.7 |
| 20260503051007 | 3 | 279 | 3.2 | 6.4 | 0.00 | 0.00 | 0.00 | 75 | 1018.8 |
| 20260503050502 | 3 | 304 | 1.6 | 1.6 | 0.00 | 0.00 | 0.00 | 75 | 1018.9 |
| 20260503050000 | 3 | 275 | 1.6 | 3.2 | 0.00 | 0.00 | 0.00 | 75 | 1019.0 |
| 20260503045457 | 3 | 282 | 3.2 | 4.8 | 0.00 | 0.00 | 0.00 | 74 | 1019.0 |
| 20260503044954 | 3 | 299 | 0.0 | 3.2 | 0.00 | 0.00 | 0.00 | 74 | 1019.0 |
| 20260503044450 | 3 | 289 | 0.0 | 3.2 | 0.00 | 0.00 | 0.00 | 74 | 1019.1 |
| 20260503043948 | 3 | 273 | 3.2 | 4.8 | 0.00 | 0.00 | 0.00 | 73 | 1019.0 |
| 20260503043444 | 3 | 272 | 3.2 | 4.8 | 0.00 | 0.00 | 0.00 | 74 | 1019.0 |
| 20260503042941 | 3 | 311 | 3.2 | 3.2 | 0.00 | 0.00 | 0.00 | 74 | 1019.1 |
| 20260503042437 | 3 | 332 | 3.2 | 4.8 | 0.00 | 0.00 | 0.00 | 74 | 1019.0 |
| 20260503041934 | 3 | 335 | 1.6 | 4.8 | 0.00 | 0.00 | 0.00 | 74 | 1018.9 |
| 20260503041431 | 3 | 305 | 0.0 | 6.4 | 0.00 | 0.00 | 0.00 | 74 | 1018.9 |
| 20260503040928 | 3 | 306 | 0.0 | 0.0 | 0.00 | 0.00 | 0.00 | 74 | 1019.1 |
| 20260503040426 | 4 | 328 | 0.0 | 1.6 | 0.00 | 0.00 | 0.00 | 73 | 1019.0 |
| 20260503035923 | 4 | 285 | 1.6 | 4.8 | 0.00 | 0.00 | 0.00 | 73 | 1019.2 |
| 20260503035420 | 4 | 274 | 3.2 | 3.2 | 0.00 | 0.00 | 0.00 | 72 | 1019.1 |
| 20260503034917 | 4 | 292 | 0.0 | 3.2 | 0.00 | 0.00 | 0.00 | 72 | 1018.9 |
| 20260503034415 | 4 | 309 | 0.0 | 1.6 | 0.00 | 0.00 | 0.00 | 72 | 1018.9 |
| 20260503033911 | 4 | 326 | 0.0 | 1.6 | 0.00 | 0.00 | 0.00 | 71 | 1019.0 |
| 20260503033409 | 4 | 309 | 3.2 | 3.2 | 0.00 | 0.00 | 0.00 | 71 | 1018.9 |
| 20260503032907 | 4 | 313 | 4.8 | 6.4 | 0.00 | 0.00 | 0.00 | 71 | 1019.1 |
| 20260503032405 | 4 | 246 | 3.2 | 6.4 | 0.00 | 0.00 | 0.00 | 71 | 1019.0 |
| 20260503031903 | 4 | 318 | 3.2 | 4.8 | 0.00 | 0.00 | 0.00 | 71 | 1019.2 |
| 20260503031400 | 4 | 314 | 1.6 | 6.4 | 0.00 | 0.00 | 0.00 | 70 | 1019.0 |
| 20260503030856 | 4 | 280 | 0.0 | 0.0 | 0.00 | 0.00 | 0.00 | 70 | 1018.9 |
| 20260503030353 | 4 | 310 | 0.0 | 1.6 | 0.00 | 0.00 | 0.00 | 70 | 1019.0 |
| 20260503025849 | 4 | 308 | 3.2 | 3.2 | 0.00 | 0.00 | 0.00 | 70 | 1019.1 |
| 20260503025347 | 4 | 258 | 3.2 | 3.2 | 0.00 | 0.00 | 0.00 | 70 | 1019.1 |
| 20260503024844 | 4 | 263 | 3.2 | 3.2 | 0.00 | 0.00 | 0.00 | 72 | 1019.2 |
| 20260503024341 | 4 | 54 | 0.0 | 0.0 | 0.00 | 0.00 | 0.00 | 70 | 1019.2 |
| 20260503023837 | 4 | 51 | 0.0 | 0.0 | 0.00 | 0.00 | 0.00 | 69 | 1019.2 |
| 20260503023335 | 4 | 32 | 0.0 | 0.0 | 0.00 | 0.00 | 0.00 | 68 | 1019.2 |
| 20260503022832 | 4 | 29 | 1.6 | 1.6 | 0.00 | 0.00 | 0.00 | 68 | 1019.1 |
| 20260503022331 | 4 | 285 | 1.6 | 4.8 | 0.00 | 0.00 | 0.00 | 68 | 1018.9 |
| 20260503021828 | 4 | 93 | 0.0 | 1.6 | 0.00 | 0.00 | 0.00 | 68 | 1019.1 |
| 20260503021324 | 4 | 289 | 4.8 | 6.4 | 0.00 | 0.00 | 0.00 | 69 | 1019.2 |
| 20260503020822 | 4 | 243 | 0.0 | 1.6 | 0.00 | 0.00 | 0.00 | 68 | 1019.2 |
| 20260503020320 | 4 | 5 | 0.0 | 0.0 | 0.00 | 0.00 | 0.00 | 68 | 1019.2 |
| 20260503015816 | 5 | 263 | 0.0 | 1.6 | 0.00 | 0.00 | 0.00 | 67 | 1019.0 |
| 20260503015313 | 5 | 24 | 3.2 | 4.8 | 0.00 | 0.00 | 0.00 | 66 | 1019.0 |
| 20260503014809 | 5 | 42 | 0.0 | 1.6 | 0.00 | 0.00 | 0.00 | 67 | 1018.8 |
| 20260503014307 | 5 | 98 | 1.6 | 3.2 | 0.00 | 0.00 | 0.00 | 66 | 1019.0 |
| 20260503013804 | 5 | 359 | 1.6 | 3.2 | 0.00 | 0.00 | 0.00 | 66 | 1018.9 |
| 20260503013301 | 5 | 88 | 3.2 | 9.7 | 0.00 | 0.00 | 0.00 | 66 | 1019.1 |
| 20260503012758 | 5 | 355 | 6.4 | 9.7 | 0.00 | 0.00 | 0.00 | 65 | 1019.1 |
| 20260503012255 | 5 | 32 | 1.6 | 3.2 | 0.00 | 0.00 | 0.00 | 67 | 1019.0 |
| 20260503011752 | 5 | 275 | 3.2 | 3.2 | 0.00 | 0.00 | 0.00 | 67 | 1018.9 |
| 20260503011249 | 5 | 313 | 3.2 | 9.7 | 0.00 | 0.00 | 0.00 | 67 | 1018.8 |
| 20260503010745 | 5 | 291 | 1.6 | 3.2 | 0.00 | 0.00 | 0.00 | 67 | 1018.9 |
| 20260503010242 | 5 | 46 | 1.6 | 6.4 | 0.00 | 0.00 | 0.00 | 68 | 1018.9 |
| 20260503005740 | 5 | 306 | 1.6 | 3.2 | 0.00 | 0.00 | 0.00 | 67 | 1018.8 |
| 20260503005237 | 5 | 299 | 6.4 | 6.4 | 0.00 | 0.00 | 0.00 | 68 | 1018.8 |
| 20260503004733 | 5 | 349 | 0.0 | 4.8 | 0.00 | 0.00 | 0.00 | 67 | 1018.6 |
| 20260503004231 | 5 | 55 | 3.2 | 9.7 | 0.00 | 0.00 | 0.00 | 67 | 1018.7 |
| 20260503003728 | 5 | 30 | 3.2 | 9.7 | 0.00 | 0.00 | 0.00 | 66 | 1018.4 |
| 20260503003225 | 5 | 76 | 8.0 | 16.1 | 0.00 | 0.00 | 0.00 | 66 | 1018.4 |
| 20260503002722 | 5 | 69 | 6.4 | 9.7 | 0.00 | 0.00 | 0.00 | 67 | 1018.3 |
| 20260503002219 | 5 | 48 | 3.2 | 11.3 | 0.00 | 0.00 | 0.00 | 66 | 1018.4 |
| 20260503001715 | 6 | 62 | 3.2 | 6.4 | 0.00 | 0.00 | 0.00 | 66 | 1018.2 |
| 20260503001212 | 6 | 83 | 4.8 | 6.4 | 0.00 | 0.00 | 0.00 | 67 | 1018.2 |
| 20260503000710 | 6 | 316 | 0.0 | 4.8 | 0.00 | 0.00 | 0.00 | 66 | 1018.0 |
| 20260503000207 | 6 | 56 | 1.6 | 6.4 | 0.00 | 0.00 | 0.00 | 66 | 1018.1 |
| 20260502235703 | 6 | 40 | 3.2 | 4.8 | 0.00 | 0.00 | 0.00 | 67 | 1017.9 |
| 20260502235201 | 6 | 296 | 4.8 | 6.4 | 0.00 | 0.00 | 0.00 | 66 | 1018.0 |
| 20260502234657 | 6 | 46 | 4.8 | 11.3 | 0.00 | 0.00 | 0.00 | 65 | 1017.9 |
| 20260502234155 | 6 | 40 | 1.6 | 11.3 | 0.00 | 0.00 | 0.00 | 65 | 1018.0 |
| 20260502233650 | 6 | 68 | 9.7 | 11.3 | 0.00 | 0.00 | 0.00 | 65 | 1018.0 |
| 20260502233147 | 6 | 42 | 12.9 | 16.1 | 0.00 | 0.00 | 0.00 | 64 | 1017.8 |
| 20260502232643 | 6 | 40 | 6.4 | 11.3 | 0.00 | 0.00 | 0.00 | 64 | 1017.6 |
| 20260502232141 | 6 | 40 | 3.2 | 11.3 | 0.00 | 0.00 | 0.00 | 64 | 1017.6 |
| 20260502231637 | 6 | 22 | 6.4 | 9.7 | 0.00 | 0.00 | 0.00 | 64 | 1017.7 |
| 20260502231135 | 6 | 62 | 8.0 | 11.3 | 0.00 | 0.00 | 0.00 | 64 | 1017.6 |
| 20260502230633 | 7 | 23 | 3.2 | 6.4 | 0.00 | 0.00 | 0.00 | 63 | 1017.7 |
| 20260502230131 | 7 | 309 | 0.0 | 12.9 | 0.00 | 0.00 | 0.00 | 61 | 1017.6 |
| 20260502225626 | 7 | 72 | 8.0 | 11.3 | 0.00 | 0.00 | 0.00 | 61 | 1017.5 |
| 20260502225125 | 7 | 56 | 4.8 | 14.5 | 0.00 | 0.00 | 0.00 | 61 | 1017.3 |
| 20260502224620 | 7 | 33 | 4.8 | 11.3 | 0.00 | 0.00 | 0.00 | 62 | 1017.5 |
| 20260502224117 | 7 | 339 | 12.9 | 14.5 | 0.00 | 0.00 | 0.00 | 60 | 1017.3 |
| 20260502223615 | 7 | 346 | 6.4 | 12.9 | 0.00 | 0.00 | 0.00 | 60 | 1017.4 |
| 20260502223113 | 7 | 17 | 4.8 | 9.7 | 0.00 | 0.00 | 0.00 | 59 | 1017.2 |
| 20260502222610 | 8 | 47 | 8.0 | 14.5 | 0.00 | 0.00 | 0.00 | 58 | 1017.3 |
| 20260502222106 | 8 | 357 | 6.4 | 11.3 | 0.00 | 0.00 | 0.00 | 58 | 1017.2 |
| 20260502221602 | 8 | 49 | 3.2 | 24.1 | 0.00 | 0.00 | 0.00 | 58 | 1016.9 |
| 20260502221100 | 8 | 337 | 6.4 | 12.9 | 0.00 | 0.00 | 0.00 | 58 | 1016.9 |
| 20260502220555 | 8 | 51 | 4.8 | 6.4 | 0.00 | 0.00 | 0.00 | 56 | 1016.8 |
| 20260502220052 | 8 | 42 | 3.2 | 14.5 | 0.00 | 0.00 | 0.00 | 54 | 1016.8 |
| 20260502215549 | 8 | 59 | 8.0 | 17.7 | 0.00 | 0.00 | 0.00 | 56 | 1016.8 |
| 20260502215046 | 9 | 44 | 12.9 | 17.7 | 0.00 | 0.00 | 0.00 | 55 | 1016.6 |
| 20260502214543 | 9 | 318 | 11.3 | 14.5 | 0.00 | 0.00 | 0.00 | 50 | 1016.5 |
| 20260502214041 | 8 | 307 | 8.0 | 12.9 | 0.00 | 0.00 | 0.00 | 51 | 1016.5 |
| 20260502213537 | 9 | 290 | 3.2 | 16.1 | 0.00 | 0.00 | 0.00 | 49 | 1016.4 |
| 20260502213035 | 9 | 323 | 4.8 | 14.5 | 0.00 | 0.00 | 0.00 | 52 | 1016.3 |
| 20260502212534 | 9 | 323 | 4.8 | 6.4 | 0.00 | 0.00 | 0.00 | 53 | 1016.3 |
| 20260502212031 | 9 | 54 | 6.4 | 11.3 | 0.00 | 0.00 | 0.00 | 51 | 1016.6 |
| 20260502211526 | 9 | 311 | 6.4 | 9.7 | 0.00 | 0.00 | 0.00 | 51 | 1016.4 |
| 20260502211024 | 9 | 62 | 1.6 | 14.5 | 0.00 | 0.00 | 0.00 | 51 | 1016.4 |
| 20260502210521 | 9 | 320 | 6.4 | 11.3 | 0.00 | 0.00 | 0.00 | 51 | 1016.4 |
| 20260502210018 | 9 | 282 | 9.7 | 16.1 | 0.00 | 0.00 | 0.00 | 54 | 1016.1 |
| 20260502205514 | 10 | 316 | 14.5 | 20.9 | 0.00 | 0.00 | 0.00 | 50 | 1016.3 |
| 20260502205011 | 10 | 311 | 6.4 | 9.7 | 0.00 | 0.00 | 0.00 | 50 | 1016.1 |
| 20260502204508 | 9 | 301 | 9.7 | 14.5 | 0.00 | 0.00 | 0.00 | 49 | 1016.3 |
| 20260502204006 | 9 | 315 | 8.0 | 12.9 | 0.00 | 0.00 | 0.00 | 50 | 1016.3 |
| 20260502203503 | 9 | 327 | 3.2 | 9.7 | 0.00 | 0.00 | 0.00 | 48 | 1016.4 |
| 20260502203000 | 9 | 5 | 6.4 | 14.5 | 0.00 | 0.00 | 0.00 | 49 | 1016.3 |
| 20260502202456 | 9 | 328 | 4.8 | 11.3 | 0.00 | 0.00 | 0.00 | 49 | 1016.2 |
| 20260502201955 | 10 | 309 | 11.3 | 17.7 | 0.00 | 0.00 | 0.00 | 51 | 1016.3 |
| 20260502201450 | 9 | 111 | 3.2 | 12.9 | 0.00 | 0.00 | 0.00 | 49 | 1016.5 |
| 20260502200947 | 9 | 56 | 3.2 | 4.8 | 0.00 | 0.00 | 0.00 | 49 | 1016.2 |
| 20260502200443 | 9 | 40 | 8.0 | 9.7 | 0.00 | 0.00 | 0.00 | 52 | 1016.3 |